TimeEDT,TemperatureF,Dew PointF,Humidity,Sea Level PressureIn,VisibilityMPH,Wind Direction,Wind SpeedMPH,Gust SpeedMPH,PrecipitationIn,Events,Conditions,WindDirDegrees,DateUTC
12:15 AM,62.6,60.8,94,29.95,10.0,South,3.5,-,N/A,,Overcast,170,2013-03-12 04:15:00
12:55 AM,62.6,60.8,94,29.94,10.0,SSE,6.9,-,N/A,,Scattered Clouds,160,2013-03-12 04:55:00
1:15 AM,62.6,60.8,94,29.93,10.0,South,9.2,-,N/A,,Scattered Clouds,170,2013-03-12 05:15:00
1:35 AM,64.4,60.8,88,29.92,10.0,South,11.5,-,N/A,,Scattered Clouds,170,2013-03-12 05:35:00
1:55 AM,64.4,60.8,88,29.91,10.0,South,9.2,-,N/A,,Scattered Clouds,170,2013-03-12 05:55:00
2:15 AM,64.4,60.8,88,29.91,10.0,South,10.4,16.1,N/A,,Mostly Cloudy,170,2013-03-12 06:15:00
2:35 AM,64.4,60.8,88,29.91,10.0,South,9.2,16.1,N/A,,Overcast,170,2013-03-12 06:35:00
2:55 AM,64.4,60.8,88,29.91,10.0,South,6.9,16.1,N/A,,Overcast,180,2013-03-12 06:55:00
3:15 AM,64.4,60.8,88,29.89,10.0,South,10.4,16.1,N/A,,Mostly Cloudy,180,2013-03-12 07:15:00
3:55 AM,64.4,59.0,83,29.86,10.0,South,11.5,18.4,N/A,,Mostly Cloudy,170,2013-03-12 07:55:00
4:15 AM,64.4,60.8,88,29.87,10.0,South,10.4,16.1,N/A,Rain,Light Rain,190,2013-03-12 08:15:00
4:35 AM,62.6,60.8,94,29.87,10.0,South,8.1,-,N/A,Rain,Light Rain,190,2013-03-12 08:35:00
4:55 AM,62.6,60.8,94,29.88,10.0,South,5.8,-,N/A,,Overcast,180,2013-03-12 08:55:00
5:15 AM,62.6,60.8,94,29.88,10.0,South,8.1,-,N/A,,Overcast,180,2013-03-12 09:15:00
5:35 AM,62.6,60.8,94,29.88,7.0,South,12.7,18.4,N/A,,Heavy Drizzle,190,2013-03-12 09:35:00
5:55 AM,62.6,62.6,100,29.87,10.0,South,9.2,19.6,N/A,Rain,Light Rain,190,2013-03-12 09:55:00
6:15 AM,62.6,62.6,100,29.88,7.0,SSW,10.4,-,N/A,Rain,Rain,200,2013-03-12 10:15:00
6:35 AM,62.6,62.6,100,29.88,7.0,South,9.2,18.4,N/A,Rain,Light Rain,190,2013-03-12 10:35:00
6:55 AM,62.6,62.6,100,29.88,7.0,SW,8.1,-,N/A,Rain,Rain,220,2013-03-12 10:55:00
7:15 AM,62.6,62.6,100,29.88,10.0,SW,8.1,-,N/A,,Drizzle,220,2013-03-12 11:15:00
7:35 AM,62.6,62.6,100,29.87,10.0,SSW,5.8,-,N/A,,Mostly Cloudy,200,2013-03-12 11:35:00
7:55 AM,62.6,62.6,100,29.85,10.0,SW,11.5,16.1,N/A,Rain,Rain,230,2013-03-12 11:55:00
8:15 AM,62.6,62.6,100,29.86,10.0,SW,9.2,-,N/A,,Overcast,230,2013-03-12 12:15:00
8:55 AM,62.6,62.6,100,29.87,10.0,SW,10.4,17.3,N/A,,Mostly Cloudy,220,2013-03-12 12:55:00
9:15 AM,64.4,64.4,100,29.87,10.0,SW,9.2,-,N/A,,Scattered Clouds,220,2013-03-12 13:15:00
9:35 AM,64.4,64.4,100,29.88,10.0,SSW,11.5,-,N/A,,Mostly Cloudy,210,2013-03-12 13:35:00
10:15 AM,64.4,64.4,100,29.88,10.0,SW,12.7,16.1,N/A,,Overcast,230,2013-03-12 14:15:00
10:35 AM,64.4,62.6,94,29.88,10.0,SW,10.4,-,N/A,,Overcast,220,2013-03-12 14:35:00
10:55 AM,66.2,60.8,83,29.88,10.0,SW,13.8,18.4,N/A,,Overcast,220,2013-03-12 14:55:00
11:15 AM,66.2,62.6,88,29.89,10.0,WSW,15.0,-,N/A,,Overcast,240,2013-03-12 15:15:00
11:35 AM,64.4,62.6,94,29.89,10.0,SW,13.8,23.0,N/A,Rain,Light Rain,220,2013-03-12 15:35:00
11:55 AM,64.4,62.6,94,29.89,10.0,SW,12.7,26.5,N/A,,Overcast,220,2013-03-12 15:55:00
12:15 PM,66.2,62.6,88,29.89,10.0,SW,11.5,21.9,N/A,,Overcast,230,2013-03-12 16:15:00
12:35 PM,66.2,60.8,83,29.89,10.0,SW,13.8,21.9,N/A,,Overcast,230,2013-03-12 16:35:00
12:55 PM,68.0,60.8,78,29.88,10.0,SW,21.9,28.8,N/A,,Overcast,230,2013-03-12 16:55:00
1:15 PM,68.0,60.8,78,29.88,10.0,SW,15.0,25.3,N/A,,Overcast,230,2013-03-12 17:15:00
1:35 PM,68.0,60.8,78,29.87,10.0,SW,16.1,26.5,N/A,,Overcast,220,2013-03-12 17:35:00
1:55 PM,68.0,60.8,78,29.87,10.0,SSW,13.8,23.0,N/A,,Overcast,210,2013-03-12 17:55:00
2:15 PM,66.2,60.8,83,29.86,10.0,SW,23.0,28.8,N/A,,Overcast,220,2013-03-12 18:15:00
2:35 PM,64.4,62.6,94,29.85,10.0,SSW,12.7,-,N/A,,Overcast,210,2013-03-12 18:35:00
2:55 PM,64.4,62.6,94,29.84,10.0,SW,12.7,19.6,N/A,,Overcast,230,2013-03-12 18:55:00
3:15 PM,64.4,62.6,94,29.83,10.0,SW,11.5,17.3,N/A,,Overcast,220,2013-03-12 19:15:00
3:35 PM,64.4,62.6,94,29.83,10.0,SW,13.8,-,N/A,,Overcast,230,2013-03-12 19:35:00
3:55 PM,64.4,62.6,94,29.83,10.0,SW,10.4,-,N/A,,Overcast,230,2013-03-12 19:55:00
4:15 PM,66.2,62.6,88,29.82,10.0,SW,10.4,-,N/A,,Mostly Cloudy,230,2013-03-12 20:15:00
4:35 PM,68.0,62.6,83,29.82,10.0,WSW,11.5,-,N/A,,Mostly Cloudy,240,2013-03-12 20:35:00
4:55 PM,68.0,62.6,83,29.81,10.0,SW,9.2,-,N/A,,Scattered Clouds,220,2013-03-12 20:55:00
5:15 PM,68.0,62.6,83,29.81,10.0,WSW,9.2,-,N/A,,Mostly Cloudy,250,2013-03-12 21:15:00
5:35 PM,69.8,60.8,73,29.81,10.0,WSW,9.2,-,N/A,,Scattered Clouds,240,2013-03-12 21:35:00
5:55 PM,69.8,60.8,73,29.81,10.0,SW,9.2,-,N/A,,Scattered Clouds,230,2013-03-12 21:55:00
6:15 PM,69.8,60.8,73,29.81,10.0,SW,8.1,-,N/A,,Clear,230,2013-03-12 22:15:00
6:35 PM,68.0,60.8,78,29.83,10.0,WSW,8.1,-,N/A,,Clear,240,2013-03-12 22:35:00
6:55 PM,68.0,60.8,78,29.83,10.0,WSW,6.9,-,N/A,,Clear,240,2013-03-12 22:55:00
7:15 PM,66.2,60.8,83,29.84,10.0,WSW,5.8,-,N/A,,Clear,240,2013-03-12 23:15:00
7:35 PM,64.4,59.0,83,29.85,10.0,West,4.6,-,N/A,,Clear,280,2013-03-12 23:35:00
7:55 PM,64.4,55.4,73,29.85,10.0,West,4.6,-,N/A,,Clear,270,2013-03-12 23:55:00
8:15 PM,59.0,57.2,94,29.86,10.0,West,4.6,-,N/A,,Clear,260,2013-03-13 00:15:00
8:35 PM,57.2,55.4,94,29.87,10.0,West,4.6,-,N/A,,Clear,260,2013-03-13 00:35:00
8:55 PM,55.4,53.6,94,29.88,10.0,WSW,4.6,-,N/A,,Clear,250,2013-03-13 00:55:00
9:15 PM,55.4,51.8,88,29.89,10.0,West,5.8,-,N/A,,Clear,260,2013-03-13 01:15:00
9:35 PM,59.0,50.0,72,29.90,10.0,West,6.9,-,N/A,,Clear,260,2013-03-13 01:35:00
9:55 PM,59.0,50.0,72,29.91,10.0,West,6.9,-,N/A,,Clear,270,2013-03-13 01:55:00
10:15 PM,57.2,50.0,77,29.91,10.0,West,4.6,-,N/A,,Clear,270,2013-03-13 02:15:00
10:35 PM,55.4,48.2,77,29.92,10.0,West,4.6,-,N/A,,Clear,270,2013-03-13 02:35:00
10:55 PM,55.4,48.2,77,29.93,10.0,West,5.8,-,N/A,,Clear,280,2013-03-13 02:55:00
11:15 PM,55.4,48.2,77,29.93,10.0,West,4.6,-,N/A,,Clear,270,2013-03-13 03:15:00
11:35 PM,51.8,46.4,82,29.93,10.0,West,4.6,-,N/A,,Clear,270,2013-03-13 03:35:00
11:55 PM,51.8,46.4,82,29.94,10.0,West,4.6,-,N/A,,Clear,270,2013-03-13 03:55:00